Location: Oberkirch
(48.5323°N, 8.0787°E)
Time: 06:37:15
(UTC+00:00)

KKS-1 - Pass Details

Date: 21 March 2026
Orbit: 614 x 626 km, 98.1° (Epoch: 16 April)

Event Time Altitude Azimuth Distance (km) Brightness Sun altitude
Rises 00:34:21 0° 9° (N) 2,915 ? -39.6°
Reaches altitude 10° 00:36:36 10° 4° (N) 2,001 ? -39.5°
Enters shadow 00:36:42 11° 4° (N) 1,962 ? -39.5°
